Tracking 18957 objects as of 24-Jan-2018
HD Live streaming from Space Station
objects crossing your sky now

LEMUR 2 ANUBHAVTHAKUR

Track LEMUR 2 ANUBHAVTHAKUR now!
10-day predictions
LEMUR 2 ANUBHAVTHAKUR is classified as:


NORAD ID: 41873
Int'l Code: 2016-062E
Perigee: 504.5 km
Apogee: 508.7 km
Inclination: 51.6 °
Period: 94.6 minutes
Semi major axis: 6877 km
RCS: Unknown
Launch date: October 17, 2016
Source: (USA)
Launch site: WALLOPS ISLAND (WLPIS)
aabbcc
Your satellite tracking list
Your tracking list is empty




NASA's NSSDC Master Catalog

Two Line Element Set (TLE):
1 41873U 16062E   18022.69093253 +.00001466 +00000-0 +77366-4 0  9998
2 41873 051.6387 125.4842 0003089 294.5515 065.5140 15.22115478064346
Source of the keplerian elements: AFSPC